Location: Unspecified
(0.0000°N, 0.0000°E)
Time: 17:40:14
(UTC+01:00)

ATLAS V CENTAUR R/B - Visible Passes

Search period start: 30 October 2014 00:00
Search period end: 09 November 2014 00:00
Orbit: 238 x 30273 km, 17.8° (Epoch: 29 October)

Date Brightness Start Highest point End Pass type
(mag) Time Alt. Az. Time Alt. Az. Time Alt. Az.
30 Oct 8.4 00:09:27 44° ESE 00:09:27 44° ESE 07:38:32 10° E visible
31 Oct 8.1 02:32:39 64° SW 09:20:37 75° SSE 10:22:15 10° E visible
01 Nov 7.3 04:55:35 15° WSW 12:40:25 81° NNW 12:54:17 10° ENE visible
01 Nov 8.9 22:30:44 15° ESE 22:30:44 15° ESE 05:18:27 10° E visible
03 Nov 8.1 00:53:14 63° SE 00:53:14 63° SE 08:32:34 10° E visible
04 Nov 8.3 03:15:29 43° WSW 10:36:59 84° SSE 11:09:11 10° ENE visible
05 Nov 6.8 05:45:11 10° WSW 13:28:43 65° NNW 13:38:35 10° NE visible
05 Nov 8.6 23:11:58 31° ESE 23:11:58 31° ESE 06:29:44 10° E visible
07 Nov 8.0 01:33:32 71° S 01:33:53 71° S 09:19:37 10° E visible
08 Nov 7.9 03:54:49 25° WSW 11:31:36 86° NNW 11:51:53 10° ENE visible
